• In Kazakhstan
  • List of Countries
  • For 7 days
  • Water Temperature
  • Weather Map
  • News
  • Weather Widgets
  • user-avatar
    Login

    Hourly Weather Biedaszkowo

    Today, 18 August, Sunday

    Time Temperature Precipitation Wind Pressure Humidity
    00:00 +20°C° 0 mm 2 mps 750 mmHg 61%
    01:00 +20°C° 0 mm 2 mps 750 mmHg 63%
    02:00 +20°C° 0 mm 2 mps 750 mmHg 65%
    03:00 +19°C° 0 mm 2 mps 750 mmHg 67%
    04:00 +19°C° 0 mm 2 mps 750 mmHg 69%
    05:00 +19°C° 0 mm 2 mps 750 mmHg 67%
    06:00 +20°C° 0 mm 2 mps 750 mmHg 65%
    07:00 +20°C° 0 mm 2 mps 749 mmHg 63%
    08:00 +21°C° 0 mm 3 mps 749 mmHg 62%
    09:00 +22°C° 0 mm 4 mps 749 mmHg 60%
    10:00 +23°C° 0 mm 4 mps 749 mmHg 59%
    11:00 +25°C° 0 mm 5 mps 749 mmHg 57%
    12:00 +27°C° 0 mm 5 mps 749 mmHg 55%
    13:00 +28°C° 0 mm 5 mps 749 mmHg 53%
    14:00 +29°C° 0 mm 5 mps 749 mmHg 51%
    15:00 +30°C° 0 mm 5 mps 749 mmHg 49%
    16:00 +30°C° 0 mm 5 mps 748 mmHg 47%
    17:00 +29°C° 0 mm 4 mps 748 mmHg 51%
    18:00 +28°C° 0 mm 3 mps 748 mmHg 55%
    19:00 +27°C° 0 mm 3 mps 748 mmHg 58%
    20:00 +26°C° 0.4 mm 3 mps 749 mmHg 65%
    21:00 +25°C° 0.4 mm 3 mps 749 mmHg 71%
    22:00 +22°C° 0.4 mm 3 mps 749 mmHg 78%
    23:00 +23°C° 0.2 mm 2 mps 750 mmHg 81%

    Tomorrow, 19 August, Monday

    Time Temperature Precipitation Wind Pressure Humidity
    00:00 +21°C° 0.2 mm 2 mps 750 mmHg 84%
    01:00 +21°C° 0.2 mm 1 mps 750 mmHg 87%
    02:00 +20°C° 0.1 mm 2 mps 750 mmHg 88%
    03:00 +20°C° 0.1 mm 2 mps 751 mmHg 89%
    04:00 +20°C° 0.1 mm 2 mps 751 mmHg 89%
    05:00 +20°C° 0.2 mm 2 mps 751 mmHg 89%
    06:00 +20°C° 0.2 mm 2 mps 752 mmHg 88%
    07:00 +21°C° 0.2 mm 3 mps 752 mmHg 87%
    08:00 +21°C° 0 mm 3 mps 752 mmHg 81%
    09:00 +22°C° 0 mm 3 mps 752 mmHg 75%
    10:00 +24°C° 0 mm 3 mps 752 mmHg 70%
    11:00 +25°C° 0.4 mm 4 mps 753 mmHg 67%
    12:00 +25°C° 0.4 mm 5 mps 753 mmHg 64%
    13:00 +26°C° 0.4 mm 5 mps 753 mmHg 62%
    14:00 +26°C° 0.4 mm 5 mps 754 mmHg 62%
    15:00 +26°C° 0.4 mm 4 mps 754 mmHg 63%
    16:00 +25°C° 0.4 mm 4 mps 754 mmHg 63%
    17:00 +24°C° 0 mm 3 mps 754 mmHg 65%
    18:00 +22°C° 0 mm 3 mps 754 mmHg 66%
    19:00 +21°C° 0 mm 2 mps 755 mmHg 68%
    20:00 +21°C° 0 mm 2 mps 755 mmHg 65%
    21:00 +20°C° 0 mm 2 mps 756 mmHg 62%
    22:00 +20°C° 0 mm 1 mps 756 mmHg 59%
    23:00 +20°C° 0 mm 1 mps 756 mmHg 58%

    Day after tomorrow, 20 August, Tuesday

    Time Temperature Precipitation Wind Pressure Humidity
    00:00 +19°C° 0 mm 1 mps 756 mmHg 56%
    01:00 +17°C° 0 mm 0 mps 757 mmHg 54%
    02:00 +19°C° 0 mm 1 mps 757 mmHg 55%
    03:00 +19°C° 0 mm 1 mps 757 mmHg 55%
    04:00 +18°C° 0 mm 1 mps 757 mmHg 56%
    05:00 +19°C° 0 mm 1 mps 757 mmHg 57%
    06:00 +20°C° 0 mm 1 mps 757 mmHg 57%
    07:00 +20°C° 0 mm 1 mps 757 mmHg 58%
    08:00 +21°C° 0 mm 2 mps 757 mmHg 54%
    09:00 +23°C° 0 mm 2 mps 757 mmHg 50%
    10:00 +25°C° 0 mm 2 mps 758 mmHg 46%
    11:00 +26°C° 0.1 mm 2 mps 757 mmHg 46%
    12:00 +27°C° 0.1 mm 2 mps 757 mmHg 46%
    13:00 +28°C° 0.1 mm 2 mps 757 mmHg 46%
    14:00 +27°C° 0.4 mm 2 mps 757 mmHg 53%
    15:00 +25°C° 0.4 mm 2 mps 756 mmHg 59%
    16:00 +24°C° 0.4 mm 2 mps 756 mmHg 66%
    17:00 +23°C° 1.5 mm 2 mps 756 mmHg 74%
    18:00 +21°C° 1.5 mm 3 mps 756 mmHg 81%
    19:00 +19°C° 1.5 mm 3 mps 756 mmHg 89%
    20:00 +19°C° 2.6 mm 3 mps 757 mmHg 91%
    21:00 +19°C° 2.6 mm 3 mps 757 mmHg 93%
    22:00 +18°C° 2.6 mm 3 mps 757 mmHg 95%
    23:00 +18°C° 2.6 mm 3 mps 758 mmHg 95%

    21 August, Wednesday

    Time Temperature Precipitation Wind Pressure Humidity
    00:00 +18°C° 2.6 mm 3 mps 758 mmHg 95%
    01:00 +18°C° 2.6 mm 4 mps 758 mmHg 95%
    02:00 +17°C° 1.3 mm 3 mps 758 mmHg 95%
    03:00 +17°C° 1.3 mm 3 mps 758 mmHg 94%
    04:00 +17°C° 1.3 mm 3 mps 758 mmHg 94%
    05:00 +17°C° 0.4 mm 3 mps 759 mmHg 93%
    06:00 +17°C° 0.4 mm 2 mps 759 mmHg 92%
    07:00 +17°C° 0.4 mm 2 mps 760 mmHg 91%
    08:00 +18°C° 0.2 mm 2 mps 760 mmHg 86%
    09:00 +19°C° 0.2 mm 3 mps 761 mmHg 81%
    10:00 +19°C° 0.2 mm 3 mps 761 mmHg 77%
    11:00 +20°C° 0.1 mm 3 mps 761 mmHg 70%
    12:00 +21°C° 0.1 mm 3 mps 761 mmHg 63%
    13:00 +22°C° 0.1 mm 3 mps 761 mmHg 57%
    14:00 +22°C° 0 mm 3 mps 761 mmHg 54%
    15:00 +22°C° 0 mm 3 mps 761 mmHg 51%
    16:00 +24°C° 0 mm 2 mps 761 mmHg 49%
    17:00 +21°C° 0 mm 2 mps 761 mmHg 53%
    18:00 +21°C° 0 mm 1 mps 761 mmHg 57%
    19:00 +20°C° 0 mm 1 mps 761 mmHg 61%
    20:00 +19°C° 0 mm 1 mps 761 mmHg 63%
    21:00 +18°C° 0 mm 1 mps 761 mmHg 65%
    22:00 +18°C° 0 mm 1 mps 762 mmHg 66%
    23:00 +15°C° 0 mm 0 mps 762 mmHg 68%

    22 August, Thursday

    Time Temperature Precipitation Wind Pressure Humidity
    00:00 +15°C° 0 mm 0 mps 762 mmHg 70%
    01:00 +15°C° 0 mm 0 mps 762 mmHg 72%
    02:00 +14°C° 0 mm 0 mps 762 mmHg 73%
    03:00 +15°C° 0 mm 1 mps 762 mmHg 73%
    04:00 +15°C° 0 mm 1 mps 761 mmHg 74%
    05:00 +16°C° 0 mm 1 mps 762 mmHg 71%
    06:00 +18°C° 0 mm 1 mps 762 mmHg 69%
    07:00 +19°C° 0 mm 1 mps 762 mmHg 67%
    08:00 +20°C° 0 mm 1 mps 762 mmHg 62%
    09:00 +22°C° 0 mm 1 mps 762 mmHg 56%
    10:00 +23°C° 0 mm 2 mps 762 mmHg 51%
    11:00 +24°C° 0 mm 2 mps 762 mmHg 48%
    12:00 +24°C° 0 mm 2 mps 761 mmHg 46%
    13:00 +25°C° 0 mm 2 mps 761 mmHg 43%
    14:00 +25°C° 0 mm 2 mps 761 mmHg 43%
    15:00 +25°C° 0 mm 2 mps 761 mmHg 43%
    16:00 +25°C° 0 mm 2 mps 761 mmHg 43%
    17:00 +24°C° 0 mm 2 mps 761 mmHg 48%
    18:00 +21°C° 0 mm 2 mps 761 mmHg 54%
    19:00 +21°C° 0 mm 1 mps 761 mmHg 59%
    20:00 +19°C° 0 mm 2 mps 761 mmHg 63%
    21:00 +19°C° 0 mm 2 mps 761 mmHg 67%
    22:00 +18°C° 0 mm 2 mps 762 mmHg 70%
    23:00 +17°C° 0 mm 2 mps 762 mmHg 72%

    23 August, Friday

    Time Temperature Precipitation Wind Pressure Humidity
    00:00 +17°C° 0 mm 2 mps 762 mmHg 74%
    01:00 +17°C° 0 mm 2 mps 762 mmHg 75%
    02:00 +16°C° 0 mm 1 mps 762 mmHg 77%
    03:00 +16°C° 0 mm 1 mps 762 mmHg 78%
    04:00 +16°C° 0 mm 1 mps 761 mmHg 80%
    05:00 +18°C° 0 mm 1 mps 762 mmHg 77%
    06:00 +19°C° 0 mm 1 mps 762 mmHg 74%
    07:00 +19°C° 0 mm 1 mps 762 mmHg 71%
    08:00 +21°C° 0 mm 1 mps 762 mmHg 65%
    09:00 +23°C° 0 mm 1 mps 762 mmHg 58%
    10:00 +24°C° 0 mm 1 mps 762 mmHg 51%
    11:00 +25°C° 0 mm 2 mps 762 mmHg 48%
    12:00 +25°C° 0 mm 2 mps 761 mmHg 44%
    13:00 +26°C° 0 mm 2 mps 761 mmHg 40%
    14:00 +26°C° 0 mm 3 mps 761 mmHg 40%
    15:00 +26°C° 0 mm 3 mps 761 mmHg 41%
    16:00 +26°C° 0 mm 3 mps 760 mmHg 41%
    17:00 +25°C° 0 mm 3 mps 760 mmHg 46%
    18:00 +23°C° 0 mm 2 mps 760 mmHg 51%
    19:00 +21°C° 0 mm 2 mps 760 mmHg 56%
    20:00 +20°C° 0 mm 2 mps 760 mmHg 58%
    21:00 +19°C° 0 mm 3 mps 760 mmHg 59%
    22:00 +18°C° 0 mm 3 mps 761 mmHg 60%
    23:00 +18°C° 0 mm 3 mps 760 mmHg 62%
    Show more